This demonstration page uses our WeatherBlox Daily Observations layout. Learn more.

Left ArrowRight Arrow

34.16533, -84.80231

Hourly Observations for March 9, 2017

Temp ( °F °C ) Dew Point ( °F °C ) Humidity (%) Winds ( mph kmh ) Pressure ( in mb ) Visibility ( mi km ) Precip ( " mm )
12:53 am 00:53 Clear 37 2.8 33 0.6 86 86 undefined N/A 30.28 1025 10 16 0.00 0.00
1:53 am 01:53 Clear 36 2.2 33 0.6 89 89 undefined N/A 30.28 1025 10 16 0.00 0.00
2:53 am 02:53 Clear 35 1.7 32 0 89 89 undefined N/A 30.28 1025 10 16 0.00 0.00
3:53 am 03:53 Clear 33 0.6 31 -0.6 92 92 undefined N/A 30.27 1025 10 16 0.00 0.00
4:53 am 04:53 Clear 33 0.6 31 -0.6 92 92 undefined N/A 30.28 1025 10 16 0.00 0.00
5:53 am 05:53 Clear 31 -0.6 30 -1.1 96 96 undefined N/A 30.29 1026 10 16 0.00 0.00
6:53 am 06:53 Clear 31 -0.6 29 -1.7 92 92 undefined N/A 30.30 1026 10 16 0.00 0.00
7:53 am 07:53 Sunny 35 1.7 33 0.6 93 93 undefined N/A 30.30 1026 10 16 0.00 0.00
8:53 am 08:53 Sunny 45 7.2 36 2.2 71 71 undefined N/A 30.30 1026 10 16 0.00 0.00
9:53 am 09:53 Sunny 53 11.7 39 3.9 59 59 undefined N/A 30.29 1026 10 16 0.00 0.00
10:53 am 10:53 Sunny 62 16.7 40 4.4 44 44 undefined N/A 30.27 1025 10 16 0.00 0.00
11:53 am 11:53 Sunny 67 19.4 32 0 27 27 undefined N/A 30.26 1025 10 16 0.00 0.00
12:53 pm 12:53 Sunny 70 21.1 33 0.6 26 26 undefined N/A 30.22 1023 10 16 0.00 0.00
1:53 pm 13:53 Sunny 72 22.2 30 -1.1 21 21 undefined N/A 30.18 1022 10 16 0.00 0.00
2:53 pm 14:53 Sunny 74 23.3 34 1.1 23 23 undefined N/A 30.14 1021 10 16 0.00 0.00
3:53 pm 15:53 Sunny 74 23.3 34 1.1 23 23 undefined N/A 30.12 1020 10 16 0.00 0.00
4:53 pm 16:53 Sunny 74 23.3 37 2.8 26 26 undefined N/A 30.09 1019 10 16 0.00 0.00
5:53 pm 17:53 Sunny 71 21.7 35 1.7 27 27 undefined N/A 30.09 1019 10 16 0.00 0.00
6:53 pm 18:53 Clear 60 15.6 41 5 50 50 undefined N/A 30.11 1020 10 16 0.00 0.00
7:53 pm 19:53 Clear 54 12.2 41 5 62 62 undefined N/A 30.10 1019 10 16 0.00 0.00
8:53 pm 20:53 Clear 52 11.1 41 5 66 66 undefined N/A 30.09 1019 10 16 0.00 0.00
9:53 pm 21:53 Clear 51 10.6 41 5 69 69 undefined N/A 30.08 1019 10 16 0.00 0.00
10:53 pm 22:53 Clear 50 10 41 5 71 71 undefined N/A 30.07 1018 10 16 0.00 0.00
11:53 pm 23:53 Clear 50 10 42 5.6 74 74 undefined N/A 30.04 1017 10 16 0.00 0.00

Powered by AerisWeather